This is the latest recevied weather packets stored in our database for station/object KA1BMF-13. If no packets are shown the sender has not sent any weather packets the latest 10 day(s).
| Time | Temp. | Humidity | Pressure | Rain* | Wind** | Luminosity | Snow |
|---|---|---|---|---|---|---|---|
| 1787877918 | 21.11° C | 92% | 1016 hPa | 0 mm | - | 0 W/m² | - |
| 1787877317 | 21.67° C | 92% | 1015.9 hPa | 0 mm | - | 0 W/m² | - |
| 1787876717 | 21.67° C | 91% | 1015.8 hPa | 0 mm | - | 0 W/m² | - |
| 1787876117 | 21.67° C | 90% | 1015.7 hPa | 0 mm | - | 0 W/m² | - |
| 1787875520 | 22.22° C | 90% | 1015.4 hPa | 0 mm | - | 0 W/m² | - |
| 1787874918 | 22.22° C | 89% | 1015 hPa | 0 mm | - | 0 W/m² | - |
| 1787874318 | 22.22° C | 88% | 1014.9 hPa | 0 mm | - | 1 W/m² | - |
| 1787873718 | 22.78° C | 88% | 1015 hPa | 0 mm | - | 2 W/m² | - |
| 1787873118 | 22.78° C | 87% | 1015 hPa | 0 mm | - | 6 W/m² | - |
| 1787872518 | 22.78° C | 87% | 1015.1 hPa | 0 mm | - | 15 W/m² | - |
| 1787871918 | 22.78° C | 86% | 1015.1 hPa | 0 mm | - | 25 W/m² | - |
| 1787871319 | 23.33° C | 84% | 1015.1 hPa | 0 mm | - | 29 W/m² | - |
| 1787870719 | 23.33° C | 84% | 1015 hPa | 0 mm | - | 33 W/m² | - |
| 1787870119 | 23.33° C | 83% | 1015.1 hPa | 0 mm | - | 44 W/m² | - |
| 1787869516 | 23.33° C | 83% | 1015.1 hPa | 0 mm | - | 56 W/m² | - |
| 1787868916 | 23.33° C | 82% | 1014.9 hPa | 0 mm | - | 62 W/m² | - |
| 1787868320 | 23.33° C | 81% | 1015 hPa | 0 mm | - | 72 W/m² | - |
| 1787867720 | 23.89° C | 81% | 1015.1 hPa | 0 mm | - | 71 W/m² | - |
| 1787867117 | 23.89° C | 80% | 1015.3 hPa | 0 mm | - | 91 W/m² | - |
| 1787866517 | 23.89° C | 79% | 1015.5 hPa | 0 mm | - | 143 W/m² | - |
| 1787865918 | 23.89° C | 79% | 1015.8 hPa | 0 mm | - | 140 W/m² | - |
| 1787865317 | 23.89° C | 79% | 1016.1 hPa | 0 mm | - | 142 W/m² | - |
| 1787864718 | 23.89° C | 79% | 1016.2 hPa | 0 mm | - | 135 W/m² | - |
| 1787864118 | 23.89° C | 79% | 1016.3 hPa | 0 mm | - | 151 W/m² | - |
| 1787863518 | 23.89° C | 80% | 1016.3 hPa | 0 mm | - | 156 W/m² | - |
* Rain latest hour (hover to see other rain measurements)
** Current wind speed in m/s (hover to see current wind gust speed)